World > North America > United States > Utah   City of Moab, Utah
Hourly Weather in Moab, UtahMoab, Utah Hourly Weather

Moab, UT Hourly Weather

Hourly Weather Moab, UtahHourly Weather in Moab, UT
Lat: 38.57N, Lon: 109.55W  ICAO: KCNY
Web Search
Moab Weather Warning NWS WEATHER ALERT FOR THE MOAB, UT AREA - Issued: 442 AM MDT Sun Oct 24 2021 Moab Weather Warning  

Our weather pages are very print friendly and they make great conversation starters.

Feedback

Moab Hourly Weather

36 Hour Weather Scroll   °F Click to change Moab hourly weather to Imperial units.Click to change Moab hourly weather to Metric units. °C
Currently, Clear, temperature is 61°F16°C, dew point 34°F1°C, humidity 36%. Wind direction is S at 9 mph14 km/h with visibility of 10.00 mi16 km. Barometric pressure is 29.83 in1010 mb.

Oct 24
7:00 PM

Oct 24
8:00 PM

Oct 24
9:00 PM

Oct 24
10:00 PM

Oct 24
11:00 PM

Oct 25
MIDNIGHT

Oct 25
1:00 AM

Oct 25
2:00 AM

Oct 25
3:00 AM

Oct 25
4:00 AM

Oct 25
5:00 AM

Oct 25
6:00 AM

Oct 25
7:00 AM

Oct 25
8:00 AM

Oct 25
9:00 AM

Oct 25
10:00 AM

Oct 25
11:00 AM

Oct 25
NOON

Oct 25
1:00 PM

Oct 25
2:00 PM

Oct 25
3:00 PM

Oct 25
4:00 PM

Oct 25
5:00 PM

Oct 25
6:00 PM

Oct 25
7:00 PM

Oct 25
8:00 PM

Oct 25
9:00 PM

Oct 25
10:00 PM

Oct 25
11:00 PM

Oct 26
MIDNIGHT

Oct 26
1:00 AM

Oct 26
2:00 AM

Oct 26
6:00 AM

Oct 26
7:00 AM

Oct 26
8:00 AM

Oct 26
NOON
Mostly Cloudy Mostly Cloudy Mostly Cloudy Mostly Cloudy Cloudy Cloudy Cloudy Cloudy Cloudy Cloudy Cloudy Cloudy Cloudy Cloudy Cloudy Cloudy Cloudy Cloudy Cloudy Mostly Cloudy Mostly Cloudy Mostly Cloudy Mostly Clear Mostly Clear Mostly Clear Clear Clear Clear Clear Clear Clear Clear Clear Clear Clear Clear
Mostly Cloudy Mostly Cloudy Mostly Cloudy Mostly Cloudy Cloudy Cloudy Cloudy Cloudy Cloudy Cloudy Cloudy Cloudy Cloudy Cloudy Cloudy Cloudy Cloudy Cloudy Cloudy Mostly Cloudy Mostly Cloudy Mostly Cloudy Mostly Clear Mostly Clear Mostly Clear Clear Clear Clear Clear Clear Clear Clear Clear Clear Clear Clear
67°F19°C 65°F18°C 63°F17°C 62°F17°C 61°F16°C 60°F16°C 59°F15°C 59°F15°C 58°F14°C 57°F14°C 56°F13°C 55°F13°C 54°F12°C 54°F12°C 53°F12°C 53°F12°C 52°F11°C 52°F11°C 53°F12°C 53°F12°C 54°F12°C 52°F11°C 51°F11°C 49°F9°C 48°F9°C 46°F8°C 45°F7°C 44°F7°C 42°F6°C 41°F5°C 39°F4°C 37°F3°C 35°F2°C 41°F5°C 46°F8°C 52°F11°C
- - - - - - Rain Rain Rain Rain Rain Rain Rain Rain Rain Rain Rain Rain Rain Rain Rain Rain Rain Rain - - - - - - - - - - - -
7% 7% 7% 7% 7% 7% 85% 85% 85% 85% 85% 85% 47% 47% 47% 47% 47% 47% 21% 21% 21% 21% 21% 21% 2% 2% 2% 2% 2% 2% 1% 1% 1% 0% 0% 0%
34°F1°C 34°F1°C 35°F2°C 35°F2°C 36°F2°C 36°F2°C 36°F2°C 36°F2°C 36°F2°C 36°F2°C 35°F2°C 35°F2°C 35°F2°C 36°F2°C 36°F2°C 35°F2°C 34°F1°C 33°F1°C 32°F0°C 30°F-1°C 29°F-2°C 29°F-2°C 30°F-1°C 30°F-1°C 30°F-1°C 31°F-1°C 31°F-1°C 31°F-1°C 32°F0°C 32°F0°C 31°F-1°C 30°F-1°C 29°F-2°C 29°F-2°C 30°F-1°C 30°F-1°C
29% 31% 35% 36% 39% 41% 42% 42% 44% 45% 45% 47% 48% 50% 52% 50% 50% 48% 45% 41% 38% 41% 44% 48% 49% 56% 58% 60% 67% 70% 73% 76% 78% 62% 53% 43%
S S S S SSE SW SW SW SSW SSW SSW W W W W W W WNW WNW WNW WNW WNW NW NW NW WNW WNW WNW W W W WNW WNW WNW NW NW
15 mph 20 mph 20 mph 20 mph 31 mph 31 mph 31 mph 25 mph 25 mph 25 mph 25 mph 25 mph 25 mph 14 mph 14 mph 14 mph 17 mph 17 mph 17 mph 21 mph 21 mph 21 mph 23 mph 23 mph 23 mph 14 mph 14 mph 14 mph 10 mph 10 mph 10 mph 5 mph 5 mph 5 mph 4 mph 4 mph
10 mi16 km 10 mi16 km 10 mi16 km 10 mi16 km 10 mi16 km 10 mi16 km 10 mi16 km 10 mi16 km 10 mi16 km 10 mi16 km 10 mi16 km 10 mi16 km 10 mi16 km 10 mi16 km 10 mi16 km 10 mi16 km 10 mi16 km 10 mi16 km 10 mi16 km 10 mi16 km 10 mi16 km 10 mi16 km 10 mi16 km 10 mi16 km 10 mi16 km 10 mi16 km 10 mi16 km 10 mi16 km 10 mi16 km 10 mi16 km 10 mi16 km 10 mi16 km 10 mi16 km 10 mi16 km 10 mi16 km 10 mi16 km
Hour (MDT)
Weather
Clouds
Temperature
Precip. Type
POP
Dewpoint
Humidity
Wind Direction
Wind Speed
Visibility
POP = Probability of Precipitation. ** Indicates missing data/values from model statistics.

24 Hour Forecast

Tonight - Partly cloudy. Lows in the 40s. South winds 10 to 15 mph.
Monday - Mostly sunny. Highs in the 70s. South winds 10 to 20 mph with gusts to around 30 mph.

48 Hour Forecast API Feed


Sun, Oct 24
7:00 pm

Sun, Oct 24
8:00 pm

Sun, Oct 24
9:00 pm

Sun, Oct 24
10:00 pm

Sun, Oct 24
11:00 pm

Mon, Oct 25
Midnight

Mon, Oct 25
1:00 am

Mon, Oct 25
2:00 am

Mon, Oct 25
3:00 am

Mon, Oct 25
4:00 am

Mon, Oct 25
5:00 am

Mon, Oct 25
6:00 am

Mon, Oct 25
7:00 am

Mon, Oct 25
8:00 am

Mon, Oct 25
9:00 am

Mon, Oct 25
10:00 am

Mon, Oct 25
11:00 am

Mon, Oct 25
Noon

Mon, Oct 25
1:00 pm

Mon, Oct 25
2:00 pm

Mon, Oct 25
3:00 pm

Mon, Oct 25
4:00 pm

Mon, Oct 25
5:00 pm

Mon, Oct 25
6:00 pm

Mon, Oct 25
7:00 pm

Mon, Oct 25
8:00 pm

Mon, Oct 25
9:00 pm

Mon, Oct 25
10:00 pm

Mon, Oct 25
11:00 pm

Tue, Oct 26
Midnight

Tue, Oct 26
1:00 am

Tue, Oct 26
2:00 am

Tue, Oct 26
3:00 am

Tue, Oct 26
4:00 am

Tue, Oct 26
5:00 am

Tue, Oct 26
6:00 am

Tue, Oct 26
7:00 am

Tue, Oct 26
8:00 am

Tue, Oct 26
9:00 am

Tue, Oct 26
10:00 am

Tue, Oct 26
11:00 am

Tue, Oct 26
Noon

Tue, Oct 26
1:00 pm

Tue, Oct 26
2:00 pm

Tue, Oct 26
3:00 pm

Tue, Oct 26
4:00 pm

Tue, Oct 26
5:00 pm

Tue, Oct 26
6:00 pm
Partly CloudyClearClearClearClearClearClearClearClearClearClearClearClearSunnySunnySunnySunnySunnySunnySunnySunnySunnySunnySunnyClearClearClearClearClearClearPartly CloudyOvercastLight Rain ShowerLight DrizzlePatchy Rain PossiblePatchy Rain PossibleClearSunnyPatchy Light DrizzlePatchy Rain PossiblePatchy Rain PossiblePatchy Light RainPatchy Rain PossibleSunnyPatchy Rain PossibleSunnySunnyPatchy Rain Possible
Partly cloudy Clear Clear Clear Clear Clear Clear Clear Clear Clear Clear Clear Clear Sunny Sunny Sunny Sunny Sunny Sunny Sunny Sunny Sunny Sunny Sunny Clear Clear Clear Clear Clear Clear Partly cloudy Overcast Light rain showers Light drizzle Patchy rain possible Patchy rain possible Clear Sunny Patchy light drizzle Patchy rain possible Patchy rain possible Patchy light rain Patchy rain possible Sunny Patchy rain possible Sunny Sunny Patchy rain possible
61°F
16°C
57°F
14°C
57°F
14°C
56°F
13°C
55°F
13°C
55°F
13°C
54°F
12°C
53°F
12°C
53°F
12°C
52°F
11°C
51°F
11°C
51°F
11°C
52°F
11°C
52°F
11°C
60°F
16°C
64°F
18°C
68°F
20°C
71°F
22°C
72°F
22°C
73°F
23°C
75°F
24°C
76°F
24°C
75°F
24°C
71°F
22°C
68°F
20°C
67°F
19°C
67°F
19°C
66°F
19°C
65°F
18°C
63°F
17°C
62°F
17°C
62°F
16°C
59°F
15°C
54°F
12°C
49°F
10°C
48°F
9°C
47°F
8°C
47°F
8°C
46°F
8°C
45°F
7°C
46°F
8°C
50°F
10°C
53°F
12°C
56°F
13°C
56°F
13°C
55°F
13°C
55°F
13°C
53°F
12°C
31°F
-1°C
29°F
-1°C
30°F
-1°C
30°F
-1°C
29°F
-2°C
29°F
-2°C
29°F
-2°C
29°F
-1°C
29°F
-1°C
29°F
-2°C
29°F
-2°C
29°F
-2°C
28°F
-2°C
28°F
-2°C
33°F
0°C
34°F
1°C
36°F
2°C
36°F
2°C
35°F
2°C
36°F
2°C
36°F
2°C
36°F
2°C
37°F
3°C
38°F
3°C
37°F
3°C
37°F
3°C
38°F
3°C
37°F
3°C
38°F
3°C
41°F
5°C
41°F
5°C
41°F
5°C
44°F
7°C
46°F
8°C
40°F
5°C
38°F
4°C
32°F
0°C
30°F
-1°C
34°F
1°C
37°F
3°C
36°F
2°C
30°F
-1°C
28°F
-2°C
24°F
-5°C
23°F
-5°C
22°F
-5°C
22°F
-5°C
23°F
-5°C
29.8 in
1009 mb
29.83 in
1010 mb
29.8 in
1009 mb
29.83 in
1010 mb
29.83 in
1010 mb
29.83 in
1010 mb
29.83 in
1010 mb
29.83 in
1010 mb
29.83 in
1010 mb
29.83 in
1010 mb
29.83 in
1010 mb
29.83 in
1010 mb
29.83 in
1010 mb
29.83 in
1010 mb
29.83 in
1010 mb
29.8 in
1009 mb
29.77 in
1008 mb
29.74 in
1007 mb
29.71 in
1006 mb
29.68 in
1005 mb
29.62 in
1003 mb
29.59 in
1002 mb
29.56 in
1001 mb
29.56 in
1001 mb
29.56 in
1001 mb
29.56 in
1001 mb
29.53 in
1000 mb
29.53 in
1000 mb
29.53 in
1000 mb
29.53 in
1000 mb
29.5 in
999 mb
29.5 in
999 mb
29.5 in
999 mb
29.56 in
1001 mb
29.62 in
1003 mb
29.65 in
1004 mb
29.68 in
1005 mb
29.68 in
1005 mb
29.74 in
1007 mb
29.8 in
1009 mb
29.8 in
1009 mb
29.83 in
1010 mb
29.8 in
1009 mb
29.8 in
1009 mb
29.8 in
1009 mb
29.83 in
1010 mb
29.85 in
1011 mb
29.88 in
1012 mb
32%35%37%37%37%37%38%40%41%41%41%41%40%40%35%33%30%27%26%25%25%23%25%29%32%33%34%35%37%44%46%47%57%74%71%70%56%51%62%74%66%47%38%29%28%27%28%31%
SSSESESESESESESESESESESESSESSESSESSESSESSESSSSSWSSWSSSSSSSSSSSWSWSSWSSWSSSWWSWWSWNWNWWNWNWNWNWNWNW
9 mph
14 km/h
9 mph
14 km/h
10 mph
16 km/h
9 mph
15 km/h
10 mph
15 km/h
8 mph
13 km/h
8 mph
13 km/h
8 mph
13 km/h
8 mph
12 km/h
8 mph
13 km/h
8 mph
13 km/h
10 mph
15 km/h
11 mph
18 km/h
14 mph
22 km/h
15 mph
24 km/h
18 mph
29 km/h
21 mph
34 km/h
21 mph
33 km/h
23 mph
37 km/h
23 mph
37 km/h
22 mph
35 km/h
22 mph
35 km/h
22 mph
36 km/h
19 mph
31 km/h
15 mph
23 km/h
17 mph
27 km/h
24 mph
39 km/h
25 mph
40 km/h
23 mph
37 km/h
25 mph
40 km/h
28 mph
44 km/h
29 mph
47 km/h
28 mph
44 km/h
33 mph
53 km/h
31 mph
50 km/h
21 mph
34 km/h
21 mph
33 km/h
22 mph
36 km/h
18 mph
28 km/h
9 mph
14 km/h
8 mph
13 km/h
13 mph
20 km/h
17 mph
28 km/h
26 mph
41 km/h
25 mph
40 km/h
26 mph
42 km/h
24 mph
39 km/h
19 mph
30 km/h
0%0%0%0%0%0%0%0%0%0%0%0%0%0%0%0%0%0%0%0%0%0%0%0%0%0%0%0%0%0%0%0%84%77%54%83%0%0%62%68%77%65%71%0%70%0%0%79%
6 mi
10 km
6 mi
10 km
6 mi
10 km
6 mi
10 km
6 mi
10 km
6 mi
10 km
6 mi
10 km
6 mi
10 km
6 mi
10 km
6 mi
10 km
6 mi
10 km
6 mi
10 km
6 mi
10 km
6 mi
10 km
6 mi
10 km
6 mi
10 km
6 mi
10 km
6 mi
10 km
6 mi
10 km
6 mi
10 km
6 mi
10 km
6 mi
10 km
6 mi
10 km
6 mi
10 km
6 mi
10 km
6 mi
10 km
6 mi
10 km
6 mi
10 km
6 mi
10 km
6 mi
10 km
6 mi
10 km
6 mi
10 km
6 mi
10 km
1 mi
2 km
6 mi
9 km
6 mi
9 km
6 mi
10 km
6 mi
10 km
3 mi
5 km
6 mi
10 km
6 mi
10 km
6 mi
9 km
6 mi
10 km
6 mi
10 km
6 mi
10 km
6 mi
10 km
6 mi
10 km
6 mi
10 km

Day/Time
Weather
Condition
Temperature
Dew Point
Pressure
Humidity
Wind Direction
Wind Speed
Prob Precip %
Visibility
Prob Precip % = Probability of Precipitation.